Regional Weather Roundup
Issued by NWS Cleveland, OH

Home | Current Version | Previous Version | Graphics & Text | Print | Product List | Glossary On
Versions: 1 2 3 4 5 6 7 8 9 10 11 12 13 14 15 16 17 18 19 20 21 22 23 24 25 26 27 28 29 30 31 32 33 34 35 36 37 38 39 40 41 42 43 44 45 46 47 48 49 50
000
ASUS41 KCLE 030300
RWRCLE
OHIO REGIONAL WEATHER ROUNDUP
NATIONAL WEATHER SERVICE WILMINGTON, OH
1100 PM EDT MON MAY 02 2016

NOTE: "FAIR" INDICATES FEW OR NO CLOUDS BELOW 12,000 FEET WITH NO
SIGNIFICANT WEATHER AND/OR OBSTRUCTIONS TO VISIBILITY.

OHZ001>008-015>018-024>027-034-035-043-044-030400-
   NORTHWEST OHIO

CITY           SKY/WX    TMP DP  RH WIND       PRES   REMARKS
DEFIANCE       CLOUDY    50  47  89 CALM      29.99R
FINDLAY        CLOUDY    49  43  80 E7        29.97S
TOLEDO EXPRESS CLOUDY    48  45  89 CALM      29.98S
TOLEDO EXEC    CLOUDY    49  45  86 E5        29.99S
LIMA           CLOUDY    49  45  86 NE7       29.97S
$$

OHZ009>014-019>023-028>033-038-089-030400-
   NORTHEAST OHIO

CITY           SKY/WX    TMP DP  RH WIND       PRES   REMARKS
CLE-HOPKINS    MOCLDY    45  43  93 N5        29.99F
CLE-LAKEFRONT  MOCLDY    47  43  86 NE6       29.97F
CUY CO. ARPT   PTCLDY    43  41  93 NE5       29.98S
LORAIN-ELYRIA  CLOUDY    44  40  85 CALM      29.98S
ASHTABULA      MOCLDY    42  41  96 N3        29.97F FOG
AKRON-CANTON   FAIR      46  41  82 N3        29.96S
WOOSTER        NOT AVBL
MANSFIELD      FAIR      44  42  93 N3        29.97R
YOUNGSTOWN     CLOUDY    43  40  89 N7        29.95S
$$

OHZ042-051>053-060>062-070>072-077>081-030400-
  SOUTHWEST OHIO

CITY           SKY/WX    TMP DP  RH WIND       PRES   REMARKS
CINC-COVINGTON FAIR      56  51  84 NW5       29.95R
CINC-LUNKEN    CLOUDY    59  53  80 N5        29.95R
HAMILTON       CLOUDY    57  52  83 VRB3      29.96R
DAYTON         NOT AVBL
WRIGHT-PAT AFB NOT AVBL
DAYTON GENERAL CLOUDY    54  48  80 NE5       29.94S
WILMINGTON     CLOUDY    53  49  86 NE7       29.94R
$$

OHZ036-037-039>041-045>050-054>059-063>069-073>076-082>088-030400-
  CENTRAL AND SOUTHEAST OHIO

CITY           SKY/WX    TMP DP  RH WIND       PRES   REMARKS
COLUMBUS       CLOUDY    51  47  86 NE7       29.95R
OSU AIRPORT    CLOUDY    52  48  86 N7        29.95R
BOLTON FIELD   NOT AVBL
RICKENBACK AFB NOT AVBL
NEWARK         CLOUDY    53  46  77 N6        29.94S
MARION         MOCLDY    46  43  89 N5        29.98R
LANCASTER      FAIR      53  48  83 N9        29.94S
ZANESVILLE     CLOUDY    54  47  77 N5        29.94R
NEW PHILLY     CLOUDY    51  45  79 NE5       29.95S
$$




USA.gov is the U.S. government's official web portal to all federal, state and local government web resources and services.